Location: ?
(34.5636°N, 135.5560°E)
Time: 21:15:49
(UTC+00:00)

Daily predictions for brighter satellites

Satellite Brightness Start Highest point End
(mag) Time Altitude Azimuth Time Altitude Azimuth Time Altitude Azimuth
Atlas Centaur 2 4.4 18:22:21 28° ESE 18:22:21 28° ESE 18:26:19 10° E
USA 267 4.1 18:52:50 10° SE 18:57:00 44° SE 18:57:00 44° SE
NOSS 0 Rocket 4.4 19:14:30 56° E 19:14:30 56° E 19:19:56 10° NNE
Haruka 3.9 19:18:06 52° SE 19:18:06 52° SE 19:26:05 10° E
Cosmos 540 Rocket 4.3 19:26:32 47° E 19:26:32 47° E 19:31:04 10° NNE
CZ-2C R/B 3.1 19:35:19 30° E 19:35:19 30° E 19:37:31 10° E
SL-4 R/B 4.1 19:40:05 22° ENE 19:40:05 22° ENE 19:41:37 10° NE
Cosmos 990 Rocket 4.0 19:43:59 73° ENE 19:44:00 73° ENE 19:49:07 10° SSE
SL-16 R/B 4.4 19:39:50 10° SSE 19:44:14 24° E 19:48:38 10° NE
Lacrosse 4 Rocket 3.2 19:43:25 13° SSE 19:46:32 31° ESE 19:50:19 10° NE
Cosmos 2278 Rocket 3.1 19:46:37 20° N 19:50:18 46° ENE 19:55:42 10° SE
Cosmos 1891 Rocket 4.3 19:45:33 10° S 19:51:46 85° W 19:57:54 10° N
SL-24 R/B 4.4 19:48:53 10° SSE 19:52:20 58° ESE 19:52:20 58° ESE
Cosmos 2237 Rocket 2.0 19:53:01 51° SSW 19:54:31 85° WNW 20:00:14 10° NNE
Cosmos 1892 Rocket 4.3 19:56:21 44° S 19:56:21 44° S 19:59:23 10° S
Gbstr 26 Del rocket 4.3 19:53:08 53° WSW 19:55:02 74° NW 20:03:07 10° NE
Cosmos 2219 Rocket 4.4 20:00:20 10° N 20:00:20 10° N 20:00:23 10° N
Cosmos 1464 Rocket 3.8 19:49:57 10° S 19:56:03 86° W 20:02:14 10° N
Cosmos 1072 Rocket 4.3 19:55:58 10° SSW 20:02:08 70° W 20:08:24 10° N
Cosmos 1953 3.7 20:02:11 10° S 20:08:15 27° N 20:10:08 10° N
IUS-7 SRM-1 4.4 20:06:59 21° S 20:07:32 22° SSE 20:11:38 10° ESE
COSMO-SKYMED 1 3.0 20:03:36 10° SSE 20:07:52 61° ENE 20:11:15 16° N
Atlas Centaur 2 3.1 20:04:57 37° WSW 20:08:09 65° S 20:16:32 10° E
ADEOS 3.6 20:03:55 10° N 20:15:41 - SSW 20:08:34 53° NW
Cosmos 841 Rocket 3.3 20:08:14 50° SW 20:09:24 66° WNW 20:14:32 10° N
GPS 2-04 Rocket1 4.1 20:15:43 26° SSW 20:15:43 26° SSW 20:18:53 10° SSE
CZ-4B R/B 1.7 20:12:45 10° SSE 20:15:33 59° S 20:15:33 59° S
SL-8 R/B 4.3 20:15:45 34° NNW 20:17:24 49° NNE 20:22:06 10° ESE
FALCON 9 R/B 2.7 20:17:05 27° SW 20:18:34 31° SSW 20:21:24 10° SE
ATLAS CENTAUR R/B 1.0 20:19:40 41° SSW 20:20:51 83° ESE 20:24:31 10° NNE
Cosmos 1544 Rocket 3.5 20:17:15 10° SSW 20:21:29 57° W 20:25:45 10° N
Cosmos 1898 Rocket 3.5 20:21:04 39° NW 20:22:37 55° WSW 20:27:38 10° S
Cosmos 44 Rocket 3.5 20:19:33 25° NNW 20:22:42 79° ENE 20:27:52 10° SSE
Cosmos 1980 4.1 20:26:40 34° W 20:28:09 40° WNW 20:33:27 10° N
NOSS 3-2 (A) 3.2 20:24:30 10° SSW 20:29:56 85° ESE 20:36:03 10° NNE
SKYMED 3 4.4 20:27:33 10° S 20:31:51 68° W 20:35:33 14° NNW
Cosmos 2034 Rocket 4.0 20:29:02 10° SSW 20:35:17 59° W 20:41:35 10° N
Cosmos 1570 Rocket 4.2 20:30:25 10° SW 20:35:24 46° WNW 20:40:26 10° N
YAOGAN 6 3.1 20:32:33 10° NNE 20:36:14 63° E 20:39:53 10° S
USA 307 2.9 20:35:04 36° WSW 20:36:31 56° NW 20:40:41 10° NE
Meteor 2-13 Rocket 4.4 20:32:39 10° N 20:38:49 74° W 20:44:55 10° S
Cosmos 1703 3.4 20:35:05 10° N 20:38:59 73° E 20:42:53 10° SSE
H-2A R/B 4.5 20:37:06 10° NNE 20:41:12 34° E 20:45:15 10° SSE
NOSS 3-2 (C) 3.9 20:36:02 10° SSW 20:41:19 58° ESE 20:47:13 10° NE
H-2A R/B 2.6 20:38:30 10° N 20:42:10 62° WNW 20:45:52 10° SSW
Nadezhda 4 Rocket 3.9 20:36:28 10° N 20:42:33 70° W 20:48:37 10° S
USA 267 4.5 20:38:08 10° SSW 20:42:44 20° WSW 20:44:23 19° WSW
USA 305 3.2 20:42:57 29° W 20:44:37 45° NW 20:48:42 10° NNE
Cosmos 1626 Rocket 3.5 20:40:52 10° N 20:45:21 77° W 20:49:47 10° S
USA 308 3.1 20:43:33 28° W 20:45:22 46° NW 20:49:27 10° NNE
Cosmos 372 Rocket 4.0 20:41:41 10° NNW 20:46:57 85° ENE 20:52:10 10° SSE
MOS 1 Rocket 3.3 20:43:29 10° S 20:48:31 66° W 20:53:17 10° NNW
Cosmos 1634 Rocket 4.1 20:42:49 10° S 20:48:57 77° E 20:55:08 10° N
Okean 1-7 Rocket 4.2 20:46:48 19° NW 20:49:20 33° W 20:53:19 10° SSW
OAO 2 Rocket 3.2 20:47:38 25° W 20:50:32 78° SSW 20:55:28 10° ESE
PSLV R/B 3.8 20:46:39 10° S 20:50:43 80° WSW 20:54:52 10° NNW
Cosmos 1814 Rocket 4.5 20:47:21 10° SW 20:52:01 35° WNW 20:56:42 10° N
FALCON 9 DEB 3.3 20:49:22 10° SSW 20:52:26 60° SE 20:55:30 10° NE
Cosmos 1937 Rocket 3.9 20:49:12 15° NW 20:53:05 39° W 20:57:53 10° SSW
OAO 3 Copernicus 4.3 20:49:58 21° W 20:53:21 90° NW 20:58:26 10° E
Cosmos 1689 Rocket 1.8 20:52:25 10° S 20:55:19 73° W 20:58:13 10° NNW
SKYMED 2 4.2 20:52:00 10° SSW 20:55:55 34° W 20:59:51 10° NNW
CZ-4B DEB 4.4 20:50:50 10° NNE 20:56:25 76° ESE 21:01:57 10° S
USA 306 3.5 20:54:28 21° W 20:56:40 36° NW 21:00:36 10° NNE
FALCON 9 DEB 3.5 20:53:54 10° SSW 20:57:00 58° SE 21:00:05 10° NE
ERS-2 2.5 20:54:24 10° S 20:57:51 42° W 21:01:20 10° NNW
Envisat 2.9 20:54:51 10° N 20:59:54 69° WNW 21:04:56 10° SSW
CENTAUR R/B 2.4 20:55:05 10° SSW 21:00:38 89° ESE 21:07:14 10° NNE
Lacrosse 5 rocket 1.4 20:57:23 13° NNW 21:00:39 63° NE 21:04:16 10° SE
Cosmos 1300 2.8 20:57:13 10° S 21:00:59 76° E 21:04:48 10° N
OAO 1 Rocket 4.5 21:02:17 17° W 21:06:29 85° S 21:11:49 10° ESE
CZ-4B R/B 4.0 21:06:11 10° NNW 21:08:50 19° WNW 21:11:33 10° WSW
Cosmos 1758 Rocket 3.8 21:04:38 10° N 21:09:07 74° E 21:13:33 10° SSE
Cosmos 1400 Rocket 3.8 21:08:10 10° SW 21:11:36 26° WNW 21:15:05 10° NNW
CZ-2C R/B 1.2 21:09:38 15° W 21:13:07 83° N 21:17:05 10° E
Cosmos 1328 3.9 21:10:44 10° NNW 21:14:33 53° W 21:18:20 10° S
NOAA 6 4.0 21:11:11 10° N 21:16:20 68° WNW 21:21:28 10° SSW
SL-4 R/B 3.5 21:15:42 13° WNW 21:17:45 19° NNW 21:20:38 10° NNE
NOAA 12 4.2 21:12:27 10° NNE 21:17:45 84° ESE 21:23:04 10° SSW
Cosmos 2026 Rocket 4.0 21:12:43 10° N 21:19:06 79° W 21:25:28 10° S
Cosmos 1726 Rocket 3.8 21:15:57 10° S 21:20:15 75° E 21:24:33 10° N
PSLV R/B 4.3 21:17:41 10° N 21:21:25 38° WNW 21:25:12 10° SW
BREEZE-M DEB (TANK) 2.5 21:16:29 10° NW 21:23:13 77° NE 21:25:49 10° ESE
USA 238 DEB 3.8 21:17:09 10° SW 21:23:26 49° NW 21:30:00 10° NNE
USA 238 3.8 21:17:15 10° SW 21:23:32 50° NW 21:30:06 10° NNE
Lacrosse 4 Rocket 2.8 21:22:10 10° WSW 21:25:15 20° NW 21:28:25 10° N
Okean O Rocket 1.8 21:21:31 10° NNE 21:25:53 75° ESE 21:30:11 10° S
CZ-2C R/B 2.8 21:21:03 10° SSE 21:26:14 80° ENE 21:31:33 10° N
GEOS 3 Rocket 3.7 21:21:14 10° SSE 21:26:32 73° WSW 21:31:56 10° NW
Cosmos 1602 Rocket 4.3 21:22:37 10° NNW 21:26:39 34° W 21:30:41 10° SSW
Cosmos 2369 Rocket 4.2 21:22:13 10° N 21:26:51 26° ENE 21:31:26 10° ESE
SL-16 R/B 2.6 21:22:47 10° SW 21:28:02 39° WNW 21:33:20 10° N
MOS 1-B 4.3 21:22:57 10° N 21:28:41 66° WNW 21:34:23 10° SSW
Cosmos 1943 Rocket 3.2 21:24:01 10° N 21:29:29 48° ENE 21:34:57 10° SE
FALCON 9 DEB 3.1 21:29:31 10° WSW 21:32:35 49° NW 21:35:39 10° NE
Cosmos 2278 Rocket 3.5 21:29:55 10° NW 21:33:57 20° W 21:37:58 10° SW
Cosmos 1943 4.4 21:30:24 10° S 21:35:52 50° ESE 21:41:20 10° NNE
CZ-4B R/B 3.3 21:30:35 10° NNE 21:36:15 84° WNW 21:41:47 10° SSW
